RH
16 14 13 12 11 9 8 7 7 7 6 7 6 7 7 7 7 6 6 6 6 6 6 6 6 7 7 7 6 5 5 4 4 4 3 3 3 4 5 6 8 10
46 42 38 36 33 30 26 21 18 17 15 16 15 15 16 15 14 14 14 13 14 14 13 12 12 13 12 11 10 10 9 9 8 7 6 6 5 4 3 3 4 4
76 73 68 65 61 57 52 47 42 39 35 33 31 27 25 25 23 22 22 21 20 19 19 19 20 19 17 15 15 14 12 11 11 10 9 9 8 8 7 6 5 4
84 83 80 77 75 71 67 62 56 54 51 49 46 39 31 29 29 28 26 26 27 28 31 34 34 31 28 28 28 25 22 20 18 17 14 11 10 9 9 9 8 7
81 80 78 76 75 74 73 71 64 59 56 56 58 54 44 35 31 32 34 35 36 39 42 43 42 39 39 43 44 40 37 36 37 37 32 26 21 16 13 11 10 9
79 76 73 70 68 66 66 69 68 65 61 58 59 61 58 51 40 34 35 39 40 41 43 45 44 43 44 49 50 48 46 49 56 61 57 50 42 34 26 20 14 12
80 78 74 70 68 64 60 59 60 61 62 63 63 63 62 61 56 45 36 35 38 40 42 45 45 44 47 51 51 51 54 61 69 75 74 70 63 53 45 36 26 19
86 86 84 79 73 68 63 59 56 55 56 58 64 68 67 63 62 59 49 38 34 37 42 43 42 44 48 52 54 62 72 76 78 80 81 80 75 67 61 55 43 32
86 86 83 80 76 71 65 61 57 56 55 55 58 66 71 68 63 61 59 50 38 35 40 41 42 47 53 59 68 81 87 83 81 83 86 85 80 73 69 64 56 48
84 81 80 80 81 81 77 71 63 55 55 59 60 64 70 74 69 61 60 59 46 35 39 44 46 52 59 68 77 83 83 79 79 85 89 89 83 75 71 66 62 60
86 82 85 88 90 93 95 94 86 70 59 60 65 70 73 76 76 68 61 61 51 38 40 47 50 55 63 72 78 77 74 72 75 83 91 91 85 76 72 68 66 66
86 84 90 95 97 100 101 103 103 93 77 68 68 74 78 80 80 73 65 65 55 41 41 47 50 57 68 78 80 75 71 73 78 86 94 94 88 81 77 75 73 74
89 89 93 97 99 101 100 100 103 103 96 87 81 83 87 89 85 76 71 70 57 44 43 47 52 62 75 83 82 79 80 84 87 92 98 99 94 87 84 83 83 84
98 95 94 96 99 100 100 99 100 104 106 103 98 99 100 98 89 80 79 74 58 47 47 50 59 72 84 88 89 90 93 94 93 95 100 104 100 92 89 90 91 93
99 96 94 97 100 100 100 100 99 101 104 102 103 105 105 99 91 87 86 75 58 50 52 58 71 86 96 98 97 97 97 98 98 98 102 106 103 95 91 94 96 99
100 99 98 99 101 100 99 100 100 100 100 101 103 106 103 99 96 92 83 69 58 55 60 71 86 96 101 102 100 98 98 101 103 103 104 107 104 96 93 95 99 101
101 100 100 100 100 100 100 100 100 100 100 100 102 105 105 102 95 86 74 64 61 64 72 83 93 98 100 102 103 103 103 103 105 106 107 106 103 96 93 96 100 103
101 102 101 101 100 100 99 99 100 100 100 100 100 103 106 101 90 78 70 67 68 73 79 86 90 93 95 98 103 105 105 103 104 106 106 105 103 98 93 96 100 103
88 93 97 99 100 101 101 101 101 100 100 102 102 103 103 99 89 81 76 73 74 76 78 80 81 83 86 91 97 101 101 100 99 101 104 104 103 98 94 95 99 101
72 74 78 83 87 91 95 99 102 102 102 103 104 103 102 99 95 91 88 85 83 81 80 78 76 76 81 88 95 97 98 99 96 95 100 104 104 101 97 94 93 95
71 67 67 69 70 70 72 75 78 84 89 93 97 99 101 102 102 102 100 99 97 95 92 89 87 86 87 90 92 91 91 94 93 92 96 102 105 104 102 96 90 88
81 76 71 69 67 63 59 55 52 53 56 60 65 70 75 82 87 92 97 100 102 103 102 100 98 96 95 93 92 90 89 90 90 89 92 99 104 106 106 102 94 91
83 75 67 62 58 55 52 48 47 47 47 47 47 47 48 50 53 57 63 69 77 83 88 91 94 95 96 96 96 97 97 95 93 91 90 93 98 101 104 105 100 98
72 61 55 52 48 46 45 45 46 47 49 51 52 51 50 49 48 47 45 46 48 51 54 59 65 71 78 87 94 99 102 101 99 96 94 94 95 96 98 103 105 105
58 48 45 46 47 48 49 48 48 50 52 55 58 60 62 62 62 61 59 57 54 51 49 45 43 44 47 54 67 80 90 98 101 100 98 96 95 96 95 98 103 106
54 49 52 58 64 70 72 72 72 73 75 75 77 80 79 75 72 67 62 61 60 59 60 59 56 54 48 40 39 46 58 74 87 96 100 100 99 99 99 100 104 107
Wind_Speed
33 33 34 34 35 36 37 38 38 39 39 40 42 42 43 45 48 51 53 56 59 60 63 65 66 66 68 71 74 77 80 83 86 90 93 96 99 103 106 110 114 118
26 27 27 26 25 26 27 27 27 28 28 29 30 31 33 37 39 41 43 45 46 47 49 50 50 52 55 58 60 62 64 67 70 74 79 82 86 90 93 97 101 106
26 26 26 26 25 24 24 23 22 22 22 23 23 25 28 31 33 34 35 36 37 38 38 38 40 43 45 45 47 49 51 54 56 59 64 68 72 76 80 84 88 93
27 27 27 27 27 27 26 25 24 23 23 22 22 23 25 28 29 30 30 31 30 30 30 31 32 34 34 34 36 38 39 40 42 45 49 53 57 62 67 71 76 81
31 30 29 28 28 27 27 27 26 25 24 24 24 24 25 26 27 28 29 29 28 27 27 27 29 29 28 28 29 30 30 30 31 33 36 39 43 47 52 58 63 69
32 32 32 31 30 29 28 28 27 27 26 26 25 25 26 26 27 28 29 29 29 27 27 27 28 28 26 26 27 27 26 25 26 28 29 31 33 36 40 45 51 57
31 31 31 31 31 31 30 29 29 28 28 27 27 27 28 27 27 28 30 30 29 28 27 28 29 27 25 25 26 25 24 24 25 26 27 28 30 31 33 36 41 47
31 30 30 30 30 31 30 30 29 29 28 28 28 28 29 29 29 29 29 30 30 28 27 28 28 26 25 25 24 23 23 24 25 25 26 27 28 29 30 32 35 38
29 29 29 29 29 29 29 29 29 28 27 27 26 27 29 30 31 31 30 29 29 28 27 28 27 25 24 23 22 22 24 25 25 25 25 25 27 28 29 30 31 33
28 29 30 29 27 26 25 25 25 25 24 24 24 25 27 29 31 32 30 28 27 27 27 26 26 24 23 22 22 23 26 26 26 25 25 25 26 27 28 29 29 30
29 30 29 27 23 21 20 19 19 20 20 20 20 21 23 27 30 31 29 26 25 25 25 25 25 24 23 22 23 25 26 26 25 24 24 25 26 27 27 28 28 29
28 29 27 24 21 18 15 13 12 12 13 14 16 17 19 23 27 28 26 24 23 23 24 24 24 23 22 23 25 25 24 23 22 22 22 24 25 26 27 27 27 28
27 28 26 24 20 17 13 11 8 6 6 8 11 13 16 19 22 23 22 21 21 23 24 23 22 22 22 24 24 23 22 22 21 21 21 22 24 25 26 27 27 28
26 26 25 24 21 18 15 12 8 5 2 3 6 9 11 14 17 18 19 19 20 22 22 22 21 21 22 23 22 22 22 21 21 20 20 21 23 24 26 27 28 29
24 24 23 23 21 19 17 14 11 8 5 2 3 6 9 11 14 15 16 17 19 20 21 20 20 20 21 22 22 22 22 21 20 19 19 21 22 24 25 27 28 29
24 23 22 21 20 19 17 15 13 10 8 5 4 5 7 9 10 12 14 16 18 19 19 19 20 21 22 22 22 22 21 20 19 19 19 20 22 23 24 25 27 28
23 23 21 20 19 18 17 15 13 11 8 5 3 2 4 6 8 10 12 15 16 17 18 19 20 21 22 22 22 21 21 20 19 19 19 19 21 22 23 24 26 27
23 23 22 20 19 18 17 15 13 11 9 6 4 1 1 4 6 9 11 13 15 17 18 19 21 21 22 22 21 21 21 20 20 19 19 19 20 22 23 24 25 26
23 23 23 22 21 19 17 16 14 12 10 8 6 3 1 2 5 8 10 12 14 16 18 19 20 21 22 22 21 21 21 20 20 20 19 18 19 22 24 25 25 25
24 24 24 24 23 21 20 18 16 14 12 10 8 5 3 3 4 6 9 11 13 15 17 18 20 21 22 22 22 22 21 21 21 20 20 18 18 20 24 26 26 26
25 24 24 24 23 23 21 20 18 16 15 13 11 9 7 5 5 6 8 10 12 13 15 17 18 20 22 22 23 23 22 22 21 21 20 19 18 19 22 25 27 26
25 25 24 24 23 22 22 21 20 19 17 16 14 12 10 9 8 7 7 8 10 12 13 15 17 19 21 22 23 23 22 22 21 21 21 20 19 19 20 23 26 26
26 25 25 24 23 23 23 22 22 21 20 19 17 16 14 13 11 10 9 9 9 10 11 13 14 16 17 18 19 20 20 20 20 20 21 20 20 20 20 21 23 25
26 26 26 25 24 24 23 23 22 21 21 20 19 18 17 16 15 14 12 11 10 10 11 11 12 13 14 15 16 17 17 18 18 19 20 21 21 21 21 21 22 23
25 25 25 24 24 23 22 22 21 21 20 20 19 18 18 17 16 16 15 14 13 11 11 10 10 11 12 13 13 14 15 15 16 16 17 19 20 21 21 21 21 22
24 24 24 24 24 23 23 22 22 21 21 20 19 19 18 17 16 15 15 14 15 14 13 11 10 10 10 10 11 12 13 13 13 13 13 15 17 18 20 20 21 22
Wind_Direction
296 294 291 288 285 282 278 275 271 268 264 261 259 257 254 252 250 248 247 247 248 249 249 250 251 251 250 251 251 251 251 251 251 251 250 250 249 248 247 247 246 245
304 302 300 297 293 288 283 279 274 269 264 260 257 254 251 249 248 248 248 248 248 248 249 249 249 249 249 249 250 250 250 250 250 249 249 248 248 247 247 246 245 244
305 302 299 297 294 291 287 282 276 270 264 259 254 250 247 247 247 247 247 247 247 247 247 246 246 247 248 249 250 249 250 250 250 250 249 248 248 247 246 245 244 243
306 302 298 294 292 289 286 283 277 271 265 261 256 250 246 246 246 245 244 244 244 243 242 242 243 245 247 247 248 249 249 249 250 250 250 249 248 247 246 244 243 242
308 304 300 296 291 287 283 280 277 272 266 261 257 253 249 247 245 243 241 241 241 241 241 243 245 245 245 246 247 249 249 249 249 250 250 250 249 248 246 244 243 242
309 306 302 298 294 288 282 277 273 270 266 262 257 254 251 248 245 242 240 240 241 241 243 245 247 248 248 248 249 250 249 247 248 250 251 251 250 249 246 245 243 242
313 309 304 300 296 291 285 279 273 267 263 259 255 252 250 248 246 243 241 241 242 242 244 246 249 251 252 251 251 252 251 249 249 249 249 249 249 248 247 245 244 242
317 314 309 304 299 294 288 282 276 270 263 257 252 249 248 246 246 245 242 242 242 243 244 247 250 252 252 253 255 258 258 256 253 251 249 247 247 247 246 245 244 243
322 319 314 308 302 297 291 285 278 272 266 259 252 247 244 243 244 244 243 241 241 241 243 247 251 253 254 256 258 260 260 258 256 252 248 246 245 245 244 244 243 242
332 328 323 317 311 303 296 290 282 274 266 260 253 246 242 240 241 241 241 240 239 240 243 247 251 253 254 255 255 255 255 256 254 251 246 243 242 242 241 241 240 239
339 336 332 327 322 316 309 301 289 277 266 257 250 245 240 237 237 238 238 237 237 238 241 246 250 251 252 252 252 254 255 256 254 251 246 242 239 238 238 238 236 235
345 344 344 341 336 331 326 319 305 285 266 252 245 242 238 235 234 235 234 234 235 235 239 245 248 251 251 251 254 258 260 261 258 254 249 243 239 237 236 234 232 230
352 352 354 355 354 351 348 344 336 309 271 247 239 237 236 233 231 230 230 231 231 233 238 243 247 249 250 253 258 263 265 265 261 256 251 245 240 236 233 231 228 226
358 358 1 6 9 10 10 8 5 357 315 242 230 228 226 223 221 221 224 227 229 232 238 243 245 247 249 253 258 261 263 263 261 257 251 246 240 234 232 230 227 224
5 4 6 11 16 20 23 26 30 37 50 90 168 191 200 206 211 215 220 224 227 232 238 241 243 244 247 252 255 257 259 262 262 259 253 246 240 234 230 229 227 225
13 13 12 14 18 23 27 31 35 43 56 75 117 163 188 201 210 216 219 222 227 232 236 239 240 243 246 250 253 256 260 262 263 261 254 246 239 233 229 228 227 226
21 21 20 21 24 27 30 32 35 40 47 60 91 153 193 206 213 217 219 222 227 232 236 237 240 243 247 251 254 258 262 264 264 261 256 247 239 232 227 226 226 227
27 29 29 29 31 32 33 34 37 39 40 43 50 67 208 218 221 222 224 227 230 234 237 239 242 245 248 251 255 259 261 263 263 260 255 249 239 231 225 223 224 228
30 33 33 33 34 35 35 35 36 36 38 39 38 34 356 252 241 239 240 240 241 242 244 245 247 248 250 253 255 258 260 260 259 257 253 248 240 231 225 223 223 226
28 32 34 34 34 34 34 35 34 33 33 31 28 21 360 305 270 258 255 253 253 252 252 252 252 252 253 255 258 260 261 260 257 253 251 247 240 232 227 225 225 225
26 28 31 32 33 33 32 32 32 33 31 28 24 17 4 342 312 286 271 265 262 260 259 258 257 257 258 260 261 262 262 261 257 252 248 247 242 235 230 228 228 228
26 27 28 29 30 31 31 30 30 30 28 26 22 16 8 358 345 327 306 289 278 271 268 265 263 262 262 263 264 264 262 260 256 251 247 246 244 241 236 232 230 230
28 29 31 32 34 35 35 35 35 34 33 31 27 22 16 9 359 347 333 317 303 291 283 277 273 270 268 267 266 265 262 259 255 251 248 246 245 243 241 237 233 232
31 33 34 35 35 36 35 34 33 33 33 32 30 27 24 19 12 5 355 342 328 313 301 293 286 282 277 273 272 269 265 261 256 252 249 248 247 246 243 241 238 235
32 32 31 30 28 27 27 26 25 24 23 22 22 21 19 17 14 10 5 359 353 344 333 321 308 297 286 278 273 272 269 265 259 255 251 249 248 248 245 243 241 237
29 27 25 25 25 25 25 24 23 23 21 19 18 17 15 13 11 7 2 358 357 356 356 353 346 335 318 298 279 268 266 266 262 258 254 250 247 246 245 243 241 238